BEIDOU-3 M8 (43246 NORAD) Tracking and Keplerian Element Data

This shows tracking and keplerian element data for the satellite.

Feedback or suggestion? Click here.




ElementValue
Catalog43246
NameBEIDOU-3 M8
Epoch Orbit49
Epoch Day115.9
Epoch Year2018
RAAN42.356
Inclination55.017
Eccentricity0.0074672
Argument of Perigee177.692
Mean Anonmoly321.514
Mean Motion1.84003486
Decay Rate-1E-06
L11 43246U 18029B 18115.90000000 -.00000100 00000-0 00000+0 0 9995
L22 43246 55.0170 42.3560 0074672 177.6920 321.5140 1.84003486 490

Live tracking and technical data element details for BEIDOU-3 M8 (NORAD 43246). BEIDOU-3 M8 can be tracked NOW for your location showing map with azimuth and elevation plus other details from your city location.

Track the satellite on the map from your city or location and see movement details for azimuth, elevation, latitude, longitude, range, height, and movement on the map or in text.







IsCatalogInMostPopularTable: catalog: 43246, numindb: 65
Update: records affected: 1



GetName: 43246 BEIDOU-3 M8

Hit Count: updated at: Tue, 20 Nov 2018 12:05:39 GMT